Location: Go�ngahuizen
(53.0821°N, 5.8849°E)
Time: 23:23:04
(UTC+00:00)

COSMOS 2428 - Pass Details

Date: 09 April 2020
Orbit: 846 x 856 km, 70.9° (Epoch: 23 May)

Event Time Altitude Azimuth Distance (km) Brightness Sun altitude
Rises 22:53:48 0° 328° (NNW) 3,428 6.9 -28.2°
Reaches altitude 10° 22:56:30 10° 337° (NNW) 2,488 6.1 -28.3°
Maximum altitude 23:01:42 35° 42° (NE) 1,356 4.0 -28.4°
Enters shadow 23:03:38 28° 80° (E) 1,562 4.0 -28.5°
